www.pogodaiklimat.ru

Погода и климат >> Архив погоды >> Россия >> Тульская область >> Алексин


ПОГОДА в Алексине

  • Прогноз погоды в Алексине
  • Монитор погоды в Алексине

АРХИВ ПОГОДЫ в Алексине

Время (UTC), дата Ветер
(напр.,м/с)
 
Видим.   Явления Облачность Т
(С)
Тd
(С)
f
(%)
Тe
(С)
Тes
(С)
Комфортность P
(гПа)
Po
(гПа)
Тmin
(С)
Tmax
(С)
R
(мм)
R24
(мм)
S
(см)
18 11.09 штиль 0 н/о 3/0
[Ci fib]
+14.4 +9.6 73 +14 +14 1029.7 1006.0 +26.4
21 11.09 штиль 0 н/о ясно +11.0 +9.8 92 +10 +10 1030.0 1006.0
00 12.09 штиль 0 н/о ясно +8.7 +8.1 96 +8 +8 1030.0 1005.8
03 12.09 штиль 0 10 км ясно +7.7 +7.3 97 +7 +7 1030.1 1005.9 +7.7
06 12.09 штиль 0 10 км 3/0
[Ci fib]
+15.1 +9.3 68 +15 +19 1029.4 1005.8 +7.7
09 12.09 З 1 50 км 5/0
[Ci fib]
+24.3 +7.8 35 +25 +33 комфорт 1028.2 1005.3
12 12.09 штиль 0 50 км 8/3 600 м
[Cu hum Ci fib]
+25.1 +5.3 28 +25 +29 комфорт 1026.8 1004.0
15 12.09 штиль 0 50 км 9/0
[Cs]
+20.4 +8.2 45 +21 +22 комфорт 1025.9 1002.8
18 12.09 штиль 0 н/о 8/0
[Ci fib]
+14.8 +9.5 71 +15 +15 1026.0 1002.5 +26.0
21 12.09 штиль 0 н/о 3/0
[Ci fib]
+11.9 +9.1 83 +11 +11 1025.4 1001.6
00 13.09 штиль 0 н/о ясно +10.3 +8.2 87 +10 +10 1024.6 1000.7
03 13.09 штиль 0 10 км ясно +9.3 +7.4 88 +8 +8 1023.7 999.7 +9.3
06 13.09 штиль 0 10 км 8/0
[Ci fib]
+14.9 +8.7 66 +15 +18 1022.6 999.1 +9.1
09 13.09 З 2 10 км 8/0
[Ac trans Ci fib]
+22.6 +9.1 42 +24 +31 комфорт 1020.9 998.0 +9.3
12 13.09 З 2 50 км 9/4 1000 м
[Cu med, cong Ci]
+24.0 +10.9 44 +25 +28 комфорт 1019.1 996.4
15 13.09 З 1 50 км 5/0
[Ac trans Ci fib]
+20.8 +10.7 52 +24 +24 комфорт 1017.8 994.9
18 13.09 штиль 0 н/о 8/0
[Ac trans Ci fib]
+15.1 +11.3 78 +15 +15 1016.8 993.5 +24.5
21 13.09 штиль 0 н/о 9/0
[Ac trans]
+14.0 +11.5 85 +14 +14 1015.3 991.9
00 14.09 З 1 н/о 9/0
[Ac trans]
+14.2 +10.9 81 +15 +15 1013.1 989.8
03 14.09 З 1 4000 м слаб. ливневой дождь 10/10 600 м
[Cb cap]
+13.3 +11.8 91 +13 +13 1012.8 989.4 +11.5 0.8
06 14.09 З 1 10 км {ливн. осадки} 8/1 600 м
[Cb cap Ac trans Ci fib]
+12.8 +8.0 73 +13 +15 1014.8 991.3 +11.5 0.8
09 14.09 СЗ 2 50 км 9/9 600 м
[Cb cap]
+14.6 +7.1 61 +14 +15 1015.9 992.6
12 14.09 З 2 50 км {ливн. осадки} 4/4 300 м
[Cb cap]
+16.6 +6.6 52 +17 +20 1016.7 993.5
15 14.09 СЗ 1 50 км 3/3 600 м
[Cb cap]
+13.4 +4.3 54 +14 +14 1017.5 994.0 0.3
18 14.09 З 1 н/о ясно +7.6 +4.2 79 +7 +7 1018.6 994.6 +17.0 0.3
21 14.09 З 1 н/о 3/0
[Ci fib]
+6.4 +4.7 89 +5 +5 1018.8 994.7
00 15.09 ЮЗ 1 н/о 4/0
[Ci fib]
+6.4 +5.3 93 +5 +5 1018.3 994.2
03 15.09 З 1 10 км 3/0
[Ac trans]
+5.6 +4.8 95 +4 +4 1018.4 994.2 +5.4
06 15.09 З 1 10 км 8/3 600 м
[Cb cap Ac trans]
+9.1 +5.5 78 +9 +10 1018.4 994.5 +5.4
09 15.09 З 2 20 км 10/6 600 м
[Cb cap Ci fib]
+12.7 +4.6 58 +12 +15 1017.7 994.1
12 15.09 З 2 50 км 10/8 600 м
[Cb cap Ci fib]
+15.4 +1.7 39 +15 +16 1015.4 992.0
15 15.09 штиль 0 20 км 10/3 600 м
[Cb cap Ac trans Ci fib]
+12.4 +3.9 56 +12 +12 1013.0 989.5
18 15.09 штиль 0 н/о слаб. ливневой дождь 10/10 300 м
[Cb cap]
+8.9 +7.7 92 +8 +8 1011.2 987.5 +15.9 0.5
21 15.09 З 1 н/о {ливн. осадки} 10/10 300 м
[Cb cap]
+9.0 +7.9 93 +8 +8 1008.1 984.5
00 16.09 З 1 н/о слаб. ливневой дождь 10/10 300 м
[Cb cap]
+9.5 +7.7 89 +9 +9 1005.2 981.7
03 16.09 З 1 4000 м в посл. час ливневой дождь 10/10 300 м
[Cb cap]
+9.1 +8.2 94 +8 +8 1002.8 979.3 +8.8 4
06 16.09 З 2 10 км {ливн. осадки} 10/10 300 м
[Cb cap]
+10.2 +8.9 92 +9 +9 1001.3 977.9 +8.8 6
09 16.09 З 3 10 км в посл. час ливневой дождь 9/9 300 м
[Cb cap]
+13.5 +8.8 73 +12 +13 999.9 976.9
12 16.09 З 2
{12}
20 км {ливн. осадки} 6/6 600 м
[Cb cap]
+15.8 +6.7 55 +16 +18 999.8 976.9
15 16.09 З 1
{12}
50 км {ливн. осадки} 8/8 600 м
[Cb cap]
+13.8 +6.6 62 +14 +14 1000.5 977.4 2
18 16.09 З 1 н/о {ливн. осадки} 9/9 600 м
[Sc diur, vesp]
+11.6 +7.0 73 +12 +12 1001.3 978.0 +16.3 0.0
21 16.09 З 1 н/о 6/6 600 м
[Sc]
+10.0 +6.7 80 +10 +10 1000.9 977.5
00 17.09 З 1 н/о 10/4 600 м
[Sc Ac und]
+8.3 +6.8 90 +7 +7 1000.2 976.7
03 17.09 З 1 10 км 8/5 600 м
[Sc Ac trans]
+8.2 +6.8 91 +7 +7 1000.1 976.6 +8.0
06 17.09 З 2 10 км 6/3 600 м
[Sc Ac trans]
+9.9 +6.4 79 +8 +10 1000.0 976.6 +8.0
09 17.09 З 2 50 км 6/6 300 м
[Cb cap]
+13.4 +5.2 58 +13 +16 999.6 976.5
12 17.09 З 2 10 км слаб. ливневой дождь 9/8 300 м
[Cb cap Ac trans]
+11.1 +6.6 74 +10 +11 1000.2 976.9
15 17.09 З 2 10 км 9/9 300 м
[Cb cap]
+10.6 +5.9 73 +9 +9 1000.4 977.1 0.8
18 17.09 штиль 0 н/о 5/0
[Ac trans]
+6.7 +5.6 93 +6 +6 1001.6 977.9 +13.5 0.8
21 17.09 штиль 0 н/о 4/0
[Ac trans]
+5.1 +4.5 96 +4 +4 1001.2 977.4
00 18.09 штиль 0 н/о 10/0
[Ac und]
+6.7 +5.2 90 +6 +6 1000.7 977.0
03 18.09 штиль 0 10 км 4/0
[Ac trans]
+4.2 +3.8 97 +3 +3 1000.3 976.5 +4.1
06 18.09 штиль 0 20 км слаб. ливневой дождь 10/10 600 м
[Cb cap]
+6.2 +5.3 94 +5 +5 999.5 975.8 +3.9 0.5
09 18.09 штиль 0 20 км слаб. ливневой дождь 10/10 600 м
[Cb cap]
+7.7 +6.9 95 +7 +7 999.0 975.5
12 18.09 штиль 0 20 км {ливн. осадки} 10/10 600 м
[Cb cap]
+8.2 +6.7 90 +7 +7 998.0 974.5

 

Местоположение метеостанции Алексин (Тульская область, Россия): широта 54.50 долгота 37.08 высота над уровнем моря 197 м.

В архиве по умолчанию представлена погода в Алексине за последнюю неделю. Архивные данные за месяц целиком и за предыдущие месяцы, начиная с января 2011 года, Вы можете получить, выбрав интересующий диапазон дат из раскрывающегося списка и нажав кнопку "Ввод!".


*Определитесь, кто Вы:
робот инопланетянин человек

Внимание! Время в таблицах - всемирное. Для получения местного времени необходимо прибавить поправку, которая равна 3 ч.

Смотрите также архив погоды в соседних городах и на ближайших метеорологических станциях:

Погода в Туле (Тульская область, Россия) (46 км)
Погода в Калуге (Калужская область, Россия) (49 км)
Погода в Серпухове (Московская область, Россия) (54 км)
Погода в Суворове (Тульская область, Россия) (54 км)
Погода в Малоярославце (Калужская область, Россия) (69 км)
Погода в Обнинске (Калужская область, Россия) (73 км)
Погода в Кашире (Московская область, Россия) (78 км)
Погода в Мелихово (Московская область, Россия) (78 км)
Погода в Узловой (Тульская область, Россия) (88 км)
Погода в Михнево (Московская область, Россия) (90 км)

Пояснения к столбцам:

Ветер - указаны скорость ветра в м/с - средняя за 10 мин, порывы в срок и между сроками (в фигурных скобках) и направление, откуда дует ветер: С - северный, СВ - северо-восточный, В - восточный, ЮВ - юго-восточный, Ю - южный, ЮЗ - юго-западный, З - западный, СЗ - северо-западный.
Видимость - горизонтальная дальность видимости в метрах или километрах. При видимости от 1 до 10 км при отсутствии осадков обычно наблюдается дымка, при ухудшении видимости до 1 км и менее - туман. В сухую погоду видимость может ухудшаться дымом, пылью или мглою.
Явления - указаны атмосферные явления, наблюдавшиеся в срок или в последний час перед сроком; фигурными скобками обозначены явления, наблюдавшиеся между сроками (за 1-3 часа до срока); квадратными скобками обозначены град или гололедные отложения с указанием их диаметра в мм.
Облачность - указаны через наклонную черту общая и нижняя облачность в баллах и высота нижней границы облаков в метрах; квадратными скобками обозначены формы облаков: Ci - перистые, Cs - перисто-слоистые, Cc - перисто-кучевые, Ac - высококучевые, As - высокослоистые, Sc - слоисто-кучевые, Ns - слоисто-дождевые, Cu - кучевые, Cb - кучево-дождевые. Подробнее классификацию облаков см. в Атласе облаков (PDF).
T - Температура воздуха - температура, измеренная на высоте 2 м над землей.
Td - Температура точки росы - температура, при понижении до которой содержащийся в воздухе водяной пар достигнет насыщения.
f - Относительная влажность воздуха - влажноcть воздуха, измеренная на высоте 2 м над землей.
Te - Эффективная температура - температура, которую ощущает одетый по сезону человек в тени. Характеристика душности погоды. При расчете учитывается влияние влажности воздуха и скорости ветра на теплоощущения человека.
Tes - Эффективная температура на солнце - температура, которую ощущает человек, с поправкой на солнечный нагрев. Характеристика знойности погоды. Зависит от высоты солнца над горизонтом, облачности и скорости ветра. Ночью, в пасмурную погоду, а также при ветре 12 м/с и более поправка равна нулю.
P - Атмосферное давление - приведенное к уровню моря атмосферное давление.
Po - Атмосферное давление - измеренное на уровне метеостанции атмосферное давление.
Tmin - Минимальная температура - минимум температуры воздуха на высоте 2 м над землей.
Tmax - Максимальная температура - максимум температуры воздуха на высоте 2 м над землей.
R - Количество осадков - Количество выпавших осадков за период времени, мм. При наведении курсора мыши на число - период времени, за который выпало указанное количество осадков.
R24 - Количество осадков - Количество выпавших осадков за 24 часа, мм.
S - Снежный покров - Высота снежного покрова, см. При наведении курсора мыши на число - состояние снежного покрова и степень покрытия местности в баллах.